sat.trackr.live / text

‹ back to catalog

STARLINK-30916

NORAD 58391 · 2023-178T

PAYLOAD ACTIVE UNKNOWN

§ Identity

Operator
Country
US
Launch date
2023-11-20
Launch site
AFWTR
Launch vehicle
Mass (kg)
RCS (m²)

Purposes: comms

External: N2YO · Heavens-Above · Gunter

§ Orbital elements

Epoch: 2026-09-19T07:35:09.722400Z

Period
93.85 min
Inclination
53.1599°
Eccentricity
0.0001463
Mean motion
15.34414165 rev/d
Perigee alt
461.7 km
Apogee alt
463.7 km
Semi-major
6,840.8 km
B*
-2.1070e-5
RAAN
177.5462°
Arg perigee
93.6541°
Mean anomaly
266.4629°
Rev number
15,959

§ Raw data

STARLINK-309161 58391U 23178T   26262.31608475 -.00001089  00000+0 -21070-4 0  99922 58391  53.1599 177.5462 0001463  93.6541 266.4629 15.34414165159592

JSON: /api/v1/satellites/58391 · /tle

For live sub-satellite position, see the globe view (requires WebGL).

§ Visibility from observer

Set your observer location to see the next 7 days of passes ≥ 10°. The values pass through the URL so the page stays shareable.

No JS? Fill the form by hand. The geolocation button needs JavaScript.